QPF
0.00 0.00 0.00 0.00 0.00 0.01 0.01 0.01 0.01 0.01 0.01 0.02 0.03 0.03 0.03 0.03 0.02 0.01 0.01 0.00 0.00 0.00 0.00 0.00 0.00 0.01 0.02 0.02 0.02 0.02 0.02 0.02 0.01 0.01 0.01 0.02 0.01 0.01 0.01 0.01 0.01 0.01 0.01
0.00 0.00 0.00 0.00 0.00 0.00 0.01 0.00 0.01 0.01 0.01 0.01 0.02 0.03 0.03 0.02 0.02 0.02 0.02 0.01 0.01 0.01 0.01 0.01 0.01 0.01 0.02 0.02 0.02 0.02 0.02 0.02 0.01 0.01 0.02 0.03 0.03 0.02 0.01 0.01 0.01 0.01 0.01
0.00 0.00 0.00 0.00 0.00 0.00 0.00 0.01 0.01 0.01 0.02 0.01 0.01 0.02 0.03 0.04 0.03 0.02 0.02 0.02 0.02 0.02 0.02 0.01 0.01 0.02 0.03 0.04 0.04 0.04 0.03 0.03 0.02 0.02 0.03 0.03 0.03 0.03 0.02 0.01 0.01 0.01 0.01
0.00 0.00 0.00 0.00 0.00 0.00 0.00 0.01 0.01 0.01 0.02 0.02 0.02 0.01 0.01 0.02 0.02 0.02 0.02 0.02 0.03 0.03 0.03 0.03 0.02 0.02 0.03 0.03 0.05 0.06 0.06 0.06 0.05 0.05 0.04 0.03 0.03 0.03 0.03 0.02 0.02 0.01 0.01
0.00 0.00 0.00 0.00 0.00 0.00 0.00 0.00 0.01 0.01 0.01 0.02 0.02 0.01 0.01 0.01 0.01 0.01 0.01 0.01 0.01 0.01 0.03 0.03 0.03 0.03 0.03 0.03 0.04 0.04 0.05 0.06 0.07 0.06 0.06 0.05 0.04 0.04 0.04 0.03 0.03 0.02 0.02
0.01 0.00 0.00 0.00 0.00 0.00 0.00 0.00 0.00 0.01 0.01 0.01 0.01 0.01 0.01 0.01 0.02 0.01 0.01 0.01 0.01 0.01 0.01 0.02 0.03 0.04 0.04 0.03 0.04 0.04 0.04 0.04 0.04 0.04 0.05 0.05 0.05 0.05 0.04 0.03 0.03 0.03 0.03
0.00 0.00 0.00 0.00 0.00 0.00 0.00 0.00 0.00 0.00 0.00 0.01 0.01 0.01 0.01 0.01 0.01 0.01 0.01 0.01 0.01 0.01 0.01 0.01 0.02 0.03 0.03 0.03 0.04 0.04 0.04 0.04 0.03 0.03 0.03 0.02 0.03 0.03 0.03 0.03 0.03 0.02 0.03
0.00 0.00 0.00 0.00 0.00 0.00 0.00 0.00 0.00 0.00 0.00 0.01 0.01 0.01 0.01 0.01 0.01 0.01 0.01 0.01 0.01 0.01 0.01 0.01 0.02 0.03 0.03 0.03 0.04 0.04 0.04 0.04 0.04 0.03 0.02 0.02 0.02 0.03 0.04 0.04 0.03 0.02 0.02
0.00 0.00 0.00 0.00 0.00 0.00 0.00 0.00 0.00 0.00 0.00 0.01 0.00 0.00 0.01 0.01 0.01 0.01 0.01 0.01 0.01 0.02 0.02 0.02 0.02 0.02 0.03 0.04 0.04 0.05 0.04 0.04 0.04 0.03 0.02 0.02 0.02 0.03 0.04 0.04 0.03 0.03 0.02
0.00 0.00 0.00 0.00 0.00 0.00 0.00 0.00 0.00 0.00 0.00 0.00 0.00 0.00 0.00 0.00 0.01 0.01 0.01 0.00 0.01 0.01 0.02 0.02 0.02 0.02 0.02 0.03 0.03 0.03 0.03 0.03 0.03 0.03 0.02 0.02 0.02 0.02 0.03 0.03 0.03 0.02 0.02
0.00 0.00 0.00 0.00 0.00 0.00 0.00 0.00 0.00 0.00 0.00 0.00 0.00 0.00 0.00 0.00 0.00 0.00 0.00 0.00 0.00 0.01 0.01 0.01 0.01 0.01 0.01 0.01 0.02 0.02 0.02 0.02 0.02 0.02 0.02 0.02 0.01 0.02 0.02 0.02 0.02 0.02 0.02
0.00 0.00 0.00 0.00 0.00 0.00 0.00 0.00 0.00 0.00 0.00 0.00 0.00 0.00 0.00 0.00 0.00 0.00 0.00 0.00 0.00 0.00 0.00 0.00 0.00 0.00 0.00 0.01 0.01 0.01 0.01 0.02 0.02 0.01 0.01 0.01 0.01 0.01 0.01 0.02 0.02 0.02 0.01
0.00 0.00 0.00 0.00 0.01 0.01 0.00 0.01 0.00 0.00 0.00 0.00 0.00 0.00 0.00 0.00 0.00 0.00 0.00 0.00 0.00 0.00 0.00 0.00 0.00 0.01 0.00 0.01 0.01 0.01 0.01 0.02 0.02 0.01 0.01 0.01 0.01 0.01 0.01 0.02 0.02 0.02 0.01
0.00 0.00 0.00 0.00 0.01 0.01 0.01 0.01 0.00 0.00 0.00 0.00 0.00 0.00 0.00 0.00 0.00 0.00 0.01 0.01 0.00 0.00 0.00 0.00 0.00 0.01 0.01 0.01 0.01 0.01 0.01 0.01 0.02 0.02 0.02 0.02 0.01 0.01 0.01 0.02 0.02 0.02 0.02
0.00 0.00 0.00 0.00 0.00 0.01 0.01 0.01 0.01 0.01 0.00 0.00 0.00 0.00 0.00 0.00 0.00 0.00 0.01 0.01 0.01 0.00 0.00 0.00 0.00 0.01 0.01 0.01 0.01 0.01 0.01 0.01 0.02 0.02 0.02 0.02 0.02 0.02 0.02 0.02 0.02 0.02 0.02
0.00 0.00 0.00 0.00 0.00 0.00 0.01 0.01 0.01 0.01 0.01 0.00 0.00 0.00 0.00 0.00 0.00 0.00 0.01 0.01 0.01 0.01 0.00 0.00 0.00 0.01 0.01 0.02 0.02 0.01 0.01 0.01 0.01 0.02 0.02 0.02 0.02 0.02 0.02 0.02 0.02 0.02 0.02
0.00 0.00 0.00 0.00 0.00 0.00 0.00 0.01 0.02 0.01 0.01 0.01 0.00 0.00 0.00 0.00 0.00 0.00 0.01 0.01 0.01 0.01 0.01 0.00 0.00 0.00 0.01 0.02 0.03 0.03 0.02 0.01 0.01 0.01 0.01 0.01 0.01 0.02 0.02 0.02 0.02 0.02 0.02
0.00 0.00 0.00 0.00 0.00 0.00 0.00 0.01 0.02 0.02 0.01 0.01 0.01 0.00 0.00 0.00 0.00 0.00 0.01 0.01 0.01 0.01 0.01 0.00 0.00 0.00 0.01 0.02 0.03 0.03 0.03 0.02 0.01 0.01 0.01 0.01 0.01 0.01 0.02 0.02 0.02 0.02 0.01
0.00 0.00 0.00 0.00 0.00 0.01 0.01 0.01 0.02 0.02 0.02 0.02 0.01 0.00 0.00 0.00 0.00 0.00 0.00 0.01 0.02 0.01 0.01 0.00 0.01 0.01 0.01 0.01 0.02 0.03 0.03 0.02 0.02 0.01 0.02 0.01 0.01 0.01 0.02 0.02 0.02 0.02 0.02
0.00 0.00 0.00 0.00 0.01 0.01 0.02 0.02 0.02 0.02 0.03 0.02 0.01 0.00 0.00 0.00 0.00 0.00 0.00 0.01 0.01 0.01 0.01 0.00 0.01 0.01 0.01 0.01 0.02 0.03 0.02 0.02 0.02 0.01 0.01 0.02 0.02 0.02 0.02 0.02 0.02 0.02 0.02
0.00 0.00 0.00 0.01 0.01 0.02 0.02 0.02 0.02 0.02 0.02 0.02 0.02 0.01 0.00 0.00 0.00 0.00 0.00 0.01 0.01 0.01 0.01 0.01 0.00 0.01 0.01 0.01 0.02 0.03 0.03 0.02 0.02 0.02 0.01 0.02 0.02 0.02 0.02 0.02 0.02 0.03 0.02
0.01 0.01 0.01 0.02 0.02 0.02 0.02 0.02 0.02 0.02 0.02 0.01 0.01 0.01 0.00 0.00 0.00 0.00 0.00 0.01 0.01 0.01 0.01 0.01 0.01 0.01 0.01 0.01 0.01 0.02 0.03 0.03 0.02 0.02 0.02 0.01 0.02 0.02 0.02 0.02 0.03 0.03 0.03
0.01 0.01 0.02 0.02 0.03 0.02 0.02 0.02 0.02 0.02 0.01 0.01 0.01 0.00 0.00 0.00 0.00 0.01 0.01 0.01 0.01 0.01 0.01 0.01 0.01 0.01 0.01 0.01 0.02 0.02 0.03 0.03 0.03 0.02 0.02 0.02 0.02 0.02 0.02 0.02 0.03 0.03 0.03
0.02 0.02 0.02 0.02 0.02 0.02 0.02 0.02 0.02 0.01 0.01 0.01 0.01 0.01 0.01 0.01 0.00 0.00 0.00 0.01 0.01 0.01 0.01 0.01 0.01 0.01 0.01 0.01 0.01 0.02 0.03 0.03 0.03 0.03 0.04 0.03 0.03 0.03 0.03 0.03 0.03 0.03 0.03
0.02 0.02 0.02 0.02 0.02 0.01 0.02 0.01 0.01 0.01 0.01 0.01 0.01 0.01 0.01 0.01 0.01 0.01 0.01 0.01 0.01 0.01 0.01 0.01 0.01 0.01 0.01 0.01 0.02 0.02 0.02 0.04 0.04 0.03 0.04 0.04 0.04 0.04 0.04 0.03 0.03 0.03 0.03
0.01 0.01 0.01 0.01 0.01 0.01 0.01 0.01 0.01 0.01 0.01 0.01 0.01 0.01 0.01 0.01 0.01 0.01 0.01 0.01 0.01 0.01 0.02 0.02 0.01 0.01 0.02 0.02 0.02 0.03 0.03 0.04 0.04 0.04 0.05 0.05 0.05 0.05 0.04 0.04 0.04 0.03 0.03
MSLP
1007.09 1007.90 1008.72 1009.52 1010.30 1011.05 1011.78 1012.51 1013.22 1013.91 1014.56 1015.15 1015.67 1016.11 1016.47 1016.77 1017.02 1017.24 1017.44 1017.64 1017.81 1017.94 1018.02 1018.02 1017.94 1017.76 1017.49 1017.15 1016.74 1016.29 1015.80 1015.29 1014.78 1014.29 1013.85 1013.48 1013.22 1013.11 1013.18 1013.44 1013.88 1014.49 1015.23
1006.71 1007.51 1008.32 1009.11 1009.89 1010.65 1011.40 1012.14 1012.86 1013.54 1014.18 1014.75 1015.23 1015.64 1015.97 1016.26 1016.52 1016.76 1017.01 1017.26 1017.50 1017.70 1017.85 1017.92 1017.90 1017.79 1017.59 1017.31 1016.97 1016.58 1016.15 1015.68 1015.19 1014.69 1014.21 1013.78 1013.45 1013.25 1013.23 1013.42 1013.81 1014.38 1015.12
1006.46 1007.22 1007.99 1008.75 1009.49 1010.23 1010.97 1011.71 1012.43 1013.11 1013.74 1014.29 1014.75 1015.14 1015.45 1015.73 1015.98 1016.24 1016.52 1016.81 1017.10 1017.35 1017.56 1017.69 1017.74 1017.70 1017.58 1017.40 1017.15 1016.86 1016.51 1016.12 1015.69 1015.22 1014.74 1014.27 1013.87 1013.58 1013.46 1013.55 1013.85 1014.37 1015.06
1006.31 1007.02 1007.73 1008.42 1009.11 1009.81 1010.51 1011.23 1011.94 1012.62 1013.25 1013.79 1014.25 1014.62 1014.92 1015.19 1015.45 1015.71 1016.01 1016.32 1016.63 1016.93 1017.18 1017.37 1017.48 1017.52 1017.49 1017.40 1017.27 1017.10 1016.87 1016.59 1016.24 1015.83 1015.36 1014.88 1014.43 1014.06 1013.84 1013.81 1014.01 1014.43 1015.05
1006.22 1006.87 1007.51 1008.13 1008.74 1009.37 1010.03 1010.72 1011.42 1012.09 1012.72 1013.26 1013.72 1014.10 1014.40 1014.66 1014.92 1015.19 1015.49 1015.81 1016.14 1016.46 1016.74 1016.97 1017.14 1017.24 1017.30 1017.32 1017.31 1017.26 1017.17 1017.01 1016.77 1016.43 1016.01 1015.54 1015.05 1014.61 1014.30 1014.16 1014.24 1014.55 1015.09
1006.17 1006.78 1007.34 1007.87 1008.41 1008.96 1009.56 1010.21 1010.88 1011.55 1012.17 1012.72 1013.19 1013.57 1013.88 1014.15 1014.40 1014.67 1014.97 1015.29 1015.63 1015.95 1016.25 1016.51 1016.72 1016.88 1017.02 1017.13 1017.23 1017.31 1017.35 1017.31 1017.18 1016.94 1016.58 1016.13 1015.63 1015.14 1014.75 1014.51 1014.49 1014.70 1015.15
1006.18 1006.74 1007.23 1007.69 1008.13 1008.61 1009.14 1009.74 1010.37 1011.02 1011.64 1012.19 1012.66 1013.04 1013.35 1013.62 1013.87 1014.14 1014.43 1014.75 1015.08 1015.41 1015.71 1015.98 1016.22 1016.43 1016.62 1016.81 1017.00 1017.19 1017.34 1017.42 1017.40 1017.25 1016.96 1016.55 1016.07 1015.56 1015.12 1014.82 1014.71 1014.84 1015.22
1006.28 1006.79 1007.22 1007.59 1007.95 1008.35 1008.81 1009.35 1009.94 1010.55 1011.14 1011.67 1012.13 1012.51 1012.81 1013.07 1013.32 1013.58 1013.86 1014.17 1014.49 1014.81 1015.11 1015.38 1015.63 1015.86 1016.10 1016.34 1016.59 1016.85 1017.09 1017.27 1017.34 1017.29 1017.09 1016.74 1016.30 1015.81 1015.36 1015.03 1014.88 1014.95 1015.28
1006.46 1006.94 1007.30 1007.60 1007.89 1008.21 1008.60 1009.07 1009.60 1010.16 1010.70 1011.20 1011.62 1011.96 1012.24 1012.49 1012.72 1012.96 1013.23 1013.53 1013.84 1014.15 1014.45 1014.72 1014.96 1015.20 1015.44 1015.71 1016.00 1016.30 1016.60 1016.85 1017.01 1017.04 1016.93 1016.66 1016.29 1015.85 1015.43 1015.11 1014.96 1015.02 1015.33
1006.76 1007.18 1007.49 1007.73 1007.95 1008.21 1008.53 1008.92 1009.38 1009.86 1010.34 1010.76 1011.13 1011.42 1011.65 1011.86 1012.06 1012.29 1012.55 1012.83 1013.14 1013.44 1013.73 1013.99 1014.23 1014.45 1014.68 1014.94 1015.24 1015.56 1015.89 1016.19 1016.42 1016.53 1016.50 1016.34 1016.05 1015.70 1015.35 1015.08 1014.96 1015.04 1015.36
1007.11 1007.49 1007.75 1007.94 1008.11 1008.31 1008.57 1008.89 1009.26 1009.66 1010.04 1010.38 1010.65 1010.87 1011.04 1011.20 1011.37 1011.58 1011.82 1012.10 1012.41 1012.70 1012.98 1013.23 1013.45 1013.65 1013.86 1014.10 1014.38 1014.70 1015.04 1015.37 1015.65 1015.83 1015.89 1015.82 1015.64 1015.39 1015.13 1014.94 1014.88 1015.01 1015.36
1007.47 1007.81 1008.03 1008.19 1008.33 1008.48 1008.68 1008.93 1009.22 1009.51 1009.79 1010.02 1010.19 1010.32 1010.43 1010.53 1010.67 1010.85 1011.09 1011.37 1011.67 1011.97 1012.24 1012.47 1012.67 1012.84 1013.02 1013.23 1013.48 1013.79 1014.13 1014.48 1014.80 1015.05 1015.19 1015.22 1015.14 1015.00 1014.84 1014.73 1014.74 1014.92 1015.30
1007.76 1008.06 1008.27 1008.41 1008.53 1008.65 1008.81 1008.99 1009.19 1009.38 1009.55 1009.67 1009.74 1009.78 1009.81 1009.87 1009.97 1010.14 1010.37 1010.65 1010.95 1011.25 1011.52 1011.74 1011.92 1012.07 1012.22 1012.40 1012.63 1012.91 1013.25 1013.62 1013.97 1014.27 1014.49 1014.60 1014.62 1014.57 1014.50 1014.47 1014.54 1014.77 1015.17
1007.91 1008.20 1008.40 1008.54 1008.65 1008.76 1008.87 1009.00 1009.12 1009.21 1009.27 1009.28 1009.26 1009.22 1009.19 1009.20 1009.28 1009.44 1009.67 1009.96 1010.27 1010.57 1010.84 1011.05 1011.22 1011.35 1011.48 1011.64 1011.85 1012.13 1012.47 1012.85 1013.23 1013.58 1013.85 1014.04 1014.13 1014.16 1014.15 1014.18 1014.29 1014.54 1014.95
1007.89 1008.18 1008.39 1008.54 1008.66 1008.75 1008.83 1008.90 1008.94 1008.95 1008.91 1008.83 1008.72 1008.62 1008.54 1008.53 1008.60 1008.76 1008.99 1009.29 1009.61 1009.91 1010.18 1010.38 1010.54 1010.67 1010.79 1010.94 1011.16 1011.44 1011.79 1012.20 1012.61 1012.99 1013.31 1013.55 1013.69 1013.76 1013.80 1013.85 1013.98 1014.22 1014.63
1007.72 1008.01 1008.23 1008.39 1008.51 1008.59 1008.64 1008.65 1008.62 1008.54 1008.42 1008.26 1008.09 1007.93 1007.83 1007.81 1007.88 1008.05 1008.30 1008.60 1008.92 1009.23 1009.49 1009.70 1009.86 1009.98 1010.11 1010.28 1010.51 1010.82 1011.21 1011.64 1012.09 1012.50 1012.86 1013.12 1013.29 1013.38 1013.43 1013.49 1013.61 1013.84 1014.22
1007.43 1007.73 1007.95 1008.11 1008.22 1008.27 1008.27 1008.22 1008.12 1007.96 1007.76 1007.54 1007.32 1007.14 1007.02 1007.00 1007.09 1007.27 1007.53 1007.85 1008.17 1008.47 1008.74 1008.94 1009.10 1009.25 1009.40 1009.60 1009.87 1010.23 1010.65 1011.13 1011.61 1012.06 1012.44 1012.72 1012.90 1013.00 1013.04 1013.09 1013.19 1013.40 1013.76
1007.10 1007.38 1007.59 1007.73 1007.80 1007.80 1007.74 1007.61 1007.43 1007.19 1006.92 1006.65 1006.40 1006.20 1006.09 1006.08 1006.19 1006.39 1006.66 1006.98 1007.30 1007.60 1007.86 1008.07 1008.24 1008.41 1008.60 1008.85 1009.18 1009.59 1010.07 1010.60 1011.13 1011.61 1012.01 1012.30 1012.48 1012.58 1012.61 1012.65 1012.74 1012.94 1013.28
1006.79 1007.03 1007.19 1007.27 1007.28 1007.20 1007.06 1006.84 1006.56 1006.25 1005.92 1005.60 1005.32 1005.13 1005.03 1005.04 1005.17 1005.39 1005.67 1005.99 1006.31 1006.60 1006.85 1007.06 1007.26 1007.46 1007.70 1008.01 1008.40 1008.88 1009.42 1010.00 1010.57 1011.08 1011.50 1011.81 1012.00 1012.10 1012.14 1012.18 1012.29 1012.50 1012.85
1006.53 1006.69 1006.77 1006.77 1006.68 1006.50 1006.25 1005.93 1005.56 1005.17 1004.77 1004.42 1004.13 1003.94 1003.86 1003.90 1004.05 1004.29 1004.58 1004.90 1005.21 1005.50 1005.74 1005.97 1006.18 1006.42 1006.71 1007.08 1007.54 1008.08 1008.69 1009.31 1009.92 1010.46 1010.91 1011.23 1011.44 1011.56 1011.63 1011.70 1011.84 1012.10 1012.49
1006.30 1006.36 1006.33 1006.21 1006.01 1005.72 1005.35 1004.93 1004.46 1003.99 1003.54 1003.16 1002.86 1002.68 1002.62 1002.69 1002.87 1003.13 1003.43 1003.75 1004.06 1004.35 1004.60 1004.83 1005.08 1005.35 1005.69 1006.12 1006.63 1007.23 1007.89 1008.55 1009.19 1009.75 1010.22 1010.56 1010.80 1010.95 1011.07 1011.21 1011.42 1011.75 1012.22
1006.07 1006.00 1005.84 1005.61 1005.28 1004.87 1004.39 1003.86 1003.30 1002.77 1002.28 1001.87 1001.58 1001.41 1001.38 1001.48 1001.69 1001.97 1002.29 1002.62 1002.94 1003.23 1003.50 1003.76 1004.03 1004.34 1004.73 1005.20 1005.76 1006.39 1007.07 1007.76 1008.41 1008.98 1009.45 1009.82 1010.09 1010.29 1010.48 1010.70 1011.01 1011.44 1012.02
1005.77 1005.56 1005.28 1004.92 1004.47 1003.95 1003.37 1002.75 1002.13 1001.54 1001.02 1000.61 1000.32 1000.18 1000.18 1000.31 1000.56 1000.87 1001.22 1001.57 1001.91 1002.22 1002.52 1002.81 1003.11 1003.47 1003.89 1004.40 1004.98 1005.63 1006.31 1006.99 1007.63 1008.19 1008.66 1009.04 1009.34 1009.59 1009.86 1010.17 1010.59 1011.14 1011.84
1005.34 1005.00 1004.61 1004.13 1003.58 1002.97 1002.30 1001.62 1000.95 1000.33 999.80 999.39 999.12 999.01 999.05 999.22 999.50 999.85 1000.23 1000.62 1001.00 1001.35 1001.69 1002.02 1002.37 1002.77 1003.23 1003.75 1004.35 1004.99 1005.65 1006.30 1006.90 1007.43 1007.88 1008.26 1008.58 1008.88 1009.21 1009.62 1010.15 1010.81 1011.63
1004.75 1004.31 1003.81 1003.24 1002.62 1001.93 1001.21 1000.48 999.78 999.15 998.62 998.22 997.98 997.90 997.97 998.18 998.50 998.90 999.33 999.77 1000.20 1000.61 1001.00 1001.39 1001.80 1002.24 1002.73 1003.28 1003.86 1004.48 1005.10 1005.70 1006.25 1006.74 1007.15 1007.51 1007.83 1008.17 1008.56 1009.05 1009.67 1010.43 1011.35
1004.01 1003.48 1002.90 1002.27 1001.58 1000.85 1000.10 999.34 998.63 998.00 997.48 997.10 996.88 996.82 996.93 997.17 997.53 997.97 998.45 998.94 999.44 999.92 1000.39 1000.85 1001.33 1001.82 1002.35 1002.91 1003.49 1004.09 1004.66 1005.20 1005.69 1006.12 1006.48 1006.82 1007.14 1007.49 1007.92 1008.47 1009.15 1009.99 1010.98
Thickness
5585 5581 5580 5579 5578 5579 5578 5578 5577 5575 5574 5574 5573 5574 5574 5574 5573 5572 5572 5571 5571 5571 5571 5571 5571 5570 5571 5571 5571 5571 5571 5571 5571 5572 5574 5576 5576 5576 5576 5576 5576 5576 5576
5578 5575 5573 5572 5572 5571 5571 5570 5570 5568 5566 5566 5566 5566 5565 5565 5565 5563 5563 5562 5562 5561 5562 5562 5562 5561 5561 5561 5561 5560 5561 5561 5560 5562 5564 5568 5570 5569 5567 5566 5566 5566 5565
5572 5569 5567 5566 5565 5564 5563 5562 5562 5560 5559 5558 5557 5556 5555 5555 5555 5555 5554 5553 5553 5552 5552 5552 5552 5551 5551 5551 5551 5550 5550 5551 5549 5549 5552 5557 5562 5561 5559 5557 5556 5556 5555
5566 5563 5561 5559 5558 5556 5555 5554 5554 5553 5551 5550 5549 5550 5550 5550 5549 5547 5546 5545 5544 5543 5543 5543 5542 5541 5541 5541 5540 5540 5540 5540 5541 5540 5539 5541 5543 5545 5549 5549 5547 5545 5544
5559 5556 5554 5552 5550 5548 5546 5546 5545 5545 5544 5542 5541 5541 5542 5541 5539 5537 5536 5536 5535 5534 5533 5533 5532 5532 5531 5531 5530 5530 5530 5530 5530 5530 5530 5529 5528 5530 5533 5538 5537 5534 5533
5553 5550 5547 5544 5543 5541 5539 5538 5538 5537 5536 5534 5533 5533 5533 5532 5530 5529 5528 5528 5526 5526 5525 5523 5523 5522 5522 5521 5521 5520 5520 5519 5519 5518 5518 5518 5519 5519 5519 5523 5524 5524 5522
5547 5544 5541 5538 5536 5534 5532 5531 5530 5529 5528 5526 5525 5524 5524 5523 5522 5521 5520 5519 5518 5517 5517 5515 5514 5513 5512 5512 5511 5511 5510 5509 5509 5508 5508 5507 5506 5505 5506 5508 5511 5512 5512
5540 5537 5535 5532 5530 5528 5526 5524 5523 5522 5520 5518 5517 5515 5514 5513 5513 5512 5511 5510 5510 5509 5508 5507 5505 5504 5503 5502 5502 5502 5501 5500 5500 5499 5498 5496 5495 5494 5494 5495 5497 5500 5502
5532 5530 5528 5526 5524 5522 5520 5518 5516 5515 5512 5510 5509 5507 5506 5505 5504 5503 5502 5501 5500 5500 5498 5497 5496 5495 5494 5493 5493 5493 5492 5491 5491 5489 5488 5487 5486 5484 5484 5484 5485 5486 5491
5525 5523 5522 5519 5516 5514 5511 5510 5509 5507 5505 5503 5501 5500 5498 5496 5495 5494 5493 5492 5492 5490 5489 5488 5487 5486 5486 5485 5484 5484 5483 5483 5482 5481 5480 5479 5477 5476 5475 5474 5475 5475 5477
5519 5517 5515 5512 5509 5506 5504 5502 5501 5499 5497 5495 5493 5492 5491 5489 5487 5487 5486 5485 5483 5482 5481 5480 5478 5478 5477 5477 5476 5476 5475 5474 5474 5473 5472 5470 5469 5467 5466 5465 5466 5466 5467
5510 5509 5507 5504 5501 5499 5497 5494 5493 5491 5489 5487 5486 5484 5483 5481 5480 5480 5478 5477 5476 5474 5473 5471 5471 5469 5469 5469 5468 5468 5467 5466 5465 5464 5463 5462 5460 5459 5458 5457 5458 5458 5458
5502 5502 5500 5497 5495 5492 5489 5487 5485 5483 5481 5479 5478 5476 5475 5474 5473 5472 5470 5469 5468 5466 5464 5464 5463 5462 5461 5460 5460 5460 5459 5459 5458 5457 5455 5454 5452 5451 5450 5450 5450 5450 5450
5496 5495 5493 5491 5488 5485 5482 5480 5478 5475 5473 5471 5470 5469 5468 5467 5466 5465 5463 5462 5460 5459 5458 5456 5456 5455 5453 5452 5452 5452 5452 5451 5450 5449 5448 5446 5445 5444 5443 5443 5443 5442 5442
5491 5489 5487 5485 5482 5479 5475 5473 5470 5467 5465 5463 5462 5462 5461 5459 5458 5457 5456 5454 5453 5452 5451 5449 5448 5447 5446 5446 5445 5444 5444 5443 5443 5441 5440 5439 5437 5436 5436 5436 5436 5435 5435
5485 5483 5480 5477 5475 5472 5469 5466 5463 5460 5457 5456 5455 5454 5453 5452 5451 5450 5449 5447 5445 5444 5443 5442 5441 5440 5439 5438 5437 5437 5436 5436 5435 5435 5434 5433 5431 5429 5429 5428 5428 5427 5428
5479 5476 5474 5471 5468 5465 5462 5459 5456 5453 5450 5449 5448 5447 5446 5445 5444 5442 5441 5440 5439 5437 5435 5434 5433 5433 5432 5430 5429 5428 5428 5428 5428 5428 5427 5426 5425 5423 5423 5422 5421 5421 5421
5471 5470 5467 5464 5461 5458 5454 5452 5449 5446 5444 5443 5442 5440 5439 5438 5437 5436 5435 5434 5432 5430 5428 5427 5426 5425 5424 5422 5421 5420 5420 5420 5421 5420 5420 5420 5419 5417 5417 5417 5416 5416 5416
5464 5462 5459 5456 5453 5451 5448 5444 5442 5439 5438 5437 5435 5434 5432 5431 5430 5429 5428 5426 5424 5423 5421 5419 5418 5417 5416 5414 5413 5411 5412 5413 5413 5413 5413 5413 5413 5412 5410 5410 5411 5412 5412
5454 5452 5450 5448 5446 5443 5440 5438 5436 5434 5432 5431 5429 5427 5426 5424 5423 5422 5420 5418 5416 5415 5413 5411 5410 5410 5409 5407 5406 5404 5405 5405 5406 5405 5406 5405 5406 5406 5405 5405 5405 5406 5406
5444 5443 5441 5440 5437 5435 5432 5431 5430 5428 5426 5423 5421 5420 5418 5417 5417 5415 5412 5410 5408 5406 5405 5404 5403 5402 5402 5400 5398 5397 5397 5398 5398 5399 5399 5399 5399 5399 5399 5399 5400 5400 5399
5435 5434 5433 5431 5429 5426 5425 5425 5424 5422 5418 5416 5415 5413 5411 5410 5409 5406 5404 5402 5399 5398 5397 5396 5395 5394 5394 5393 5392 5391 5391 5391 5391 5392 5393 5393 5392 5392 5393 5393 5394 5393 5392
5427 5425 5424 5423 5421 5419 5417 5418 5417 5413 5410 5409 5408 5405 5404 5402 5401 5399 5396 5394 5392 5390 5389 5389 5389 5388 5387 5386 5385 5385 5384 5384 5384 5385 5386 5386 5386 5386 5387 5387 5386 5386 5386
5418 5417 5415 5415 5414 5412 5410 5409 5407 5405 5403 5402 5401 5399 5397 5395 5393 5391 5389 5388 5386 5384 5383 5382 5382 5382 5381 5380 5380 5379 5378 5378 5378 5378 5378 5379 5379 5379 5379 5380 5380 5380 5381
5411 5409 5408 5408 5407 5405 5403 5401 5399 5397 5396 5395 5394 5392 5390 5389 5387 5384 5382 5381 5380 5379 5378 5377 5376 5375 5376 5375 5374 5373 5373 5373 5373 5372 5372 5372 5372 5373 5373 5373 5373 5373 5373
5404 5402 5401 5401 5400 5398 5396 5394 5392 5390 5389 5388 5388 5386 5384 5382 5380 5378 5376 5374 5372 5371 5370 5369 5369 5370 5370 5369 5368 5367 5367 5367 5366 5366 5367 5367 5367 5367 5367 5367 5367 5367 5367